Regional Weather Roundup
Issued by NWS Boston, MA

Home | Current Version | Previous Version | Text Only | Print | Product List | Glossary On
Versions: 1 2 3 4 5 6 7 8 9 10 11 12 13 14 15 16 17 18 19 20 21 22 23 24 25 26 27 28 29 30 31 32 33 34 35 36 37 38 39 40 41 42 43 44 45 46 47 48 49 50
000
ASUS41 KBOX 021710
RWRBOX

REGIONAL WEATHER ROUNDUP
NATIONAL WEATHER SERVICE TAUNTON MA
100 PM EDT TUE SEP 02 2014

NOTE:  "FAIR" INDICATES FEW OR NO CLOUDS BELOW 12,000 FEET WITH NO
SIGNIFICANT WEATHER AND/OR OBSTRUCTIONS TO VISIBILITY.  THE FOLLOWING
OBSERVATION LOCATIONS DO NOT REPORT PRESENT WEATHER...PROVINCETOWN...
SMITHFIELD...BLOCK ISLAND...KEENE...AND OXFORD.

MAZALL-021800-
EASTERN MASSACHUSETTS

CITY           SKY/WX    TMP DP  RH WIND       PRES   REMARKS
BOSTON         MOSUNNY   91  68  46 SW12G17   29.84F HX  95
BEVERLY        SUNNY     89  69  51 S10       29.84F HX  93
LAWRENCE       MOSUNNY   88  69  53 SW7       29.86F HX  92
BEDFORD        MOSUNNY   87  71  58 SW8       29.84F HX  93
BLUE HILL        N/A     91  69  48 SW13G22   29.87F HX  96
NORWOOD        PTSUNNY   90  68  48 S10G18    29.84F HX  94
MARSHFIELD     MOSUNNY   91  72  52 SW9G21    29.86F HX  98
PLYMOUTH       PTSUNNY   87  72  60 S10       29.88F HX  93
TAUNTON        SUNNY     91  70  49 W10G20    29.86F HX  96
NEW BEDFORD    SUNNY     87  73  62 S14       29.88F HX  94
$$

MAZALL-021800-
CAPE COD AND THE ISLANDS

CITY           SKY/WX    TMP DP  RH WIND       PRES   REMARKS
FALMOUTH       SUNNY     88  73  62 S15       29.89F HX  96
HYANNIS        SUNNY     79  73  82 S7        29.89F
CHATHAM        CLOUDY    76  71  85 S8        29.91F HAZE
PROVINCETOWN   SUNNY     82  73  74 S13       29.87F
NANTUCKET      FOG       73  72  94 S10       29.91F VSB 3/4
MARTHAS VNYRD  SUNNY     81  73  76 S10       29.90F
$$

MAZALL-021800-
CENTRAL AND WESTERN MASSACHUSETTS

CITY           SKY/WX    TMP DP  RH WIND       PRES   REMARKS
WORCESTER      MOSUNNY   83  69  62 SW13      29.91F
FITCHBURG      MOSUNNY   89  68  49 SW10      29.86F HX  93
ORANGE         CLOUDY    85  71  63 S8        29.86F HX  90
SPRINGFIELD    PTSUNNY   88  73  62 S10       29.84F HX  96
WESTFIELD      PTSUNNY   89  70  53 S15       29.85F HX  94
NORTH ADAMS    PTSUNNY   83  70  64 VRB6      29.87F
PITTSFIELD     PTSUNNY   82  71  69 W12       29.90F
$$

RIZALL-021800-
RHODE ISLAND

CITY           SKY/WX    TMP DP  RH WIND       PRES   REMARKS
PROVIDENCE     PTSUNNY   83  74  74 SE6       29.88F
NEWPORT        SUNNY     83  73  72 S10       29.89F
BLOCK ISLAND   MOSUNNY   81  72  74 SW15      29.92S
SMITHFIELD     PTSUNNY   86  70  58 S7        29.88F HX  90
WESTERLY       SUNNY     83  73  72 VRB7      29.91F
$$

CTZALL-021800-
CONNECTICUT

CITY           SKY/WX    TMP DP  RH WIND       PRES   REMARKS
BRADLEY INTL   PTSUNNY   90  69  50 SW7       29.85F HX  94
HARTFORD       MOSUNNY   89  68  49 S12G18    29.84F HX  93
BRIDGEPORT     MOSUNNY   88  73  61 SW12      29.88F HX  95
DANBURY        MOSUNNY   86  71  60 SW8       29.90F HX  91
GROTON         SUNNY     80  74  81 S10       29.89F
NEW HAVEN      MOSUNNY   86  72  62 S9        29.88F HX  92
CHESTER        FAIR      86  73  66 S9        29.91F HX  93
MERIDEN        MOSUNNY   89  73  59 S9        29.87F HX  97
WILLIMANTIC    PTSUNNY   89  70  53 SW13      29.87F HX  94
OXFORD         MOSUNNY   84  72  65 SW7       29.95S
$$

MEZ002-015-021-024-NHZ003-005-008-011-012-014-VTZ005-008-021800-
NORTHERN NEW ENGLAND

CITY           SKY/WX    TMP DP  RH WIND       PRES   REMARKS
PORTLAND ME    PTSUNNY   73  67  81 E7        29.85F
BANGOR ME      CLOUDY    70  67  90 S9        29.88F
CONCORD NH     PTSUNNY   86  70  58 SW8       29.84F HX  90
MANCHESTER NH  PTSUNNY   86  70  58 SW7       29.83F HX  90
NASHUA NH      MOSUNNY   89  71  55 VRB5      29.85F HX  95
PORTSMOUTH NH  PTSUNNY   84  73  70 S6        29.83F HX  91
JAFFREY NH     PTSUNNY   83  69  62 S7        29.89F
KEENE NH       PTSUNNY   82  64  54 SW7       29.86F
BURLINGTON VT  MOSUNNY   85  69  58 S13G24    29.79F
MT. WASHINGTON PTSUNNY   57  55  94 W22         N/A  VSB 1
$$

NYZ052-076-021800-
EASTERN NEW YORK

CITY           SKY/WX    TMP DP  RH WIND       PRES   REMARKS
ALBANY         MOSUNNY   84  68  58 SW7       29.86F
NEW YORK CITY  PTSUNNY   89  69  51 NW3       29.87F HX  93
$$

ANZALL-021800-
MARINE OBSERVATIONS

STATION/POSITION TIME  TEMP    WIND        PRES    VSBY  WAVE
                       AIR SEA DIR/SP/G                  HT/PER
                 (UTC) (F)     (DEG/KT/KT) (MB)    (MI)  (FT/S)
BOSTON BUOY      1650   72 70  130/  6/  6 1011.4F         1/ 8
BUZZARDS BAY     1700          200/ 12/ 12 1013.2F
NANTUCKET SOUND  1650   71 72  200/ 10/ 10 1012.7F         1
MASS BAY-STELLWA 1604   71 68  160/ 10/ 10   N/A    1 7/8  1
ISLE OF SHOALS   1700   71     160/ 13/ 13 1010.1F
S OF BLOCK IS    1608      70                N/A           3/ 6
$$

......................KEY.........................
  SKY/WX - SKY CONDITION/PRESENT WEATHER
  TMP    - TEMPERATURE IN FAHRENHEIT
  DWPT   - DEWPOINT IN FAHRENHEIT
  RH     - RELATIVE HUMIDITY IN PERCENT
  WIND   - DIRECTION AND SPEED IN MPH
  PRES   - MEAN SEA LEVEL PRESSURE IN INCHES OF HG
  WCI    - WIND CHILL INDEX
  VSB    - VISIBILITY IN MILES
  HX     - HEAT INDEX
  TC     - TEMPERATURE IN CELSIUS
  VRB    - VARIABLE WIND DIRECTION
  N/A    - NOT AVAILABLE


USA.gov is the U.S. government's official web portal to all federal, state and local government web resources and services.